sat.trackr.live / text

‹ back to catalog

UNKNOWN

NORAD 87650

UNKNOWN UNKNOWN UNKNOWN

§ Identity

Operator
Country
Launch date
Launch site
Launch vehicle
Mass (kg)
RCS (m²)

External: N2YO · Heavens-Above

§ Orbital elements

Epoch: 2026-05-23T07:54:27.644832Z

Period
98.27 min
Inclination
100.2646°
Eccentricity
0.0029490
Mean motion
14.65424826 rev/d
Perigee alt
654.9 km
Apogee alt
696.5 km
Semi-major
7,053.8 km
B*
1.2602e-3
RAAN
3.0214°
Arg perigee
162.6048°
Mean anomaly
197.6165°
Rev number
10,340

§ Raw data

UNKNOWN1 87650U          26143.32948663  .00006796  00000+0  12602-2 0  99932 87650 100.2646   3.0214 0029490 162.6048 197.6165 14.65424826103403

JSON: /api/v1/satellites/87650 · /tle

For live sub-satellite position, see the globe view (requires WebGL).

§ Visibility from observer

Set your observer location to see the next 7 days of passes ≥ 10°. The values pass through the URL so the page stays shareable.

No JS? Fill the form by hand. The geolocation button needs JavaScript.